Aérodrome :
LOGIN :

S'inscrire | Disclaimer

   EN    FR    IT 

 










Légende :    VFR   VFR Marginal   IFR   IFR Intensif   IFR Très Intensif
Visi : 
Plafond : 
>= 8 km
>= 3000ft
5 à 8 km
1000 à 3000 ft
1500m à 5 km
500 à 1000 ft
800 à 1500m
200 à 500 ft
< 800m
< 200 ft
Symboles :   Orages  Brouillard  Fortes neiges  Fortes précipitations  Vent > 20 kt
SIGMETs :   Divers  Orages  Givrage  Turbulence  Onde Orograph.  Cendres Volcan.







- Altitude de l'aérodrome : 453 ft
- Code IATA : SBK
- Voir les cartes d'approche


LFRT - St Brieuc Armor

DERNIER METAR :
  • 201400Z AUTO 23007KT 170V280 9999 OVC036 17/11 Q1020

METARs EXPIRÉS :
  • 201330Z AUTO 23008KT 160V270 9999 SCT028 OVC035 17/11 Q1020
  • 201300Z AUTO 24007KT 180V270 9999 OVC035 16/11 Q1020
  • 201230Z AUTO 22006KT 150V270 9999 OVC034 16/11 Q1020
  • 201200Z AUTO 23007KT 130V260 9999 FEW026 OVC032 16/11 Q1021
  • 201130Z AUTO 23005KT 170V290 9999 FEW025 OVC032 16/11 Q1021

Prévision TAF périmée.
Pas de NOTAMs connus pour ce terrain.



MET'MAP, la Météo Aéronautique d'un coup d'oeil ! - Copyright ORBIFLY Décembre 2007 - Disclaimer

ORBIFLY MET'MAP TEAM :

Programmation & Développement : Alexandra Zaïnal
Conception & Développement : Baudouin d'Aumeries
Co-Programmation & Développement : Marc-Olivier Méhu
Soutien technique & logistique : Manuel Goepfert

Contact : metmap@orbifly.com




SOURCES & CREDITS :

   NOAA